Regional Weather Roundup
Issued by NWS

Home | Current Version | Previous Version | Text Only | Print | Product List | Glossary On
Versions: 1 2 3 4 5 6 7 8 9 10 11 12 13 14 15 16 17 18 19 20 21 22 23 24 25 26 27 28 29 30 31 32 33 34 35 36 37 38 39 40 41 42 43 44 45 46 47 48 49 50
000
ASUS44 KBMX 282210
RWRAL

ALABAMA REGIONAL WEATHER ROUNDUP
NATIONAL WEATHER SERVICE BIRMINGHAM AL
400 PM CST WED JAN 28 2015

NOTE: "FAIR" INDICATES FEW OR NO CLOUDS BELOW 12,000 FEET
WITH NO SIGNIFICANT WEATHER AND/OR OBSTRUCTIONS TO VISIBILITY.

THE REMARK "TC" DENOTES TEMPERATURE IN DEGREES CELSIUS.

ALZ001>011-014-016>018-020-282300-
NORTH ALABAMA

CITY           SKY/WX    TMP DP  RH WIND       PRES   REMARKS
MUSCLE SHOALS  SUNNY     54  27  35 SE8       30.21F
HUNTSVILLE     MOSUNNY   54  27  35 CALM      30.22F
DECATUR        SUNNY     52  27  38 SE5       30.23F
HALEYVILLE       N/A     54  26  34 CALM      30.22F
GADSDEN        SUNNY     54  21  28 CALM      30.24S
$$

ALZ012-013-022-023-030>036-040>044-282300-
WEST CENTRAL ALABAMA

CITY           SKY/WX    TMP DP  RH WIND       PRES   REMARKS
TUSCALOOSA     SUNNY     58  26  29 SE5       30.22F
$$

ALZ015-024>027-033>036-040>044-282300-
CENTRAL ALABAMA

CITY           SKY/WX    TMP DP  RH WIND       PRES   REMARKS
BIRMINGHAM     SUNNY     57  24  28 CALM      30.24F
MONTGOMERY     SUNNY     58  27  30 VRB3      30.25S
SHELBY CO ARPT SUNNY     58  26  29 CALM      30.23F
MAXWELL AFB    SUNNY     57  29  34 VRB3      30.25S
GREENVILLE     FAIR      60  24  25 NE5       30.22S
$$

ALZ019-021-028-029-037-038-045>048-282300-
EAST CENTRAL ALABAMA

CITY           SKY/WX    TMP DP  RH WIND       PRES   REMARKS
ANNISTON       SUNNY     57  24  28 CALM      30.23S
ALEXANDER CITY SUNNY     60  17  18 CALM      30.23S
AUBURN         SUNNY     55  21  26 NE5       30.26S
$$

ALZ051>064-282300-
SOUTHWEST ALABAMA

CITY           SKY/WX    TMP DP  RH WIND       PRES   REMARKS
MOBILE         MOSUNNY   66  24  20 CALM      30.23S
BROOKLEY FIELD SUNNY     66  26  22 NE6       30.24S
EVERGREEN      SUNNY     63  27  25 VRB3      30.23R
$$

ALZ049-050-065>069-282300-
SOUTHEAST ALABAMA

CITY           SKY/WX    TMP DP  RH WIND       PRES   REMARKS
DOTHAN         SUNNY     56  31  38 E3        30.27S
OZARK          SUNNY     58  27  30 NE3       30.24R
TROY           SUNNY     60  26  27 VRB6      30.24S
EUFAULA        FAIR      58  27  30 CALM      30.24R
$$


USA.gov is the U.S. government's official web portal to all federal, state and local government web resources and services.